Weather History for Curacao, Curacao

Change the Weather History Date:

Tuesday, October 30, 2012

  Actual Average Record
Temperature  
Mean Temperature 79 °F -  
Max Temperature 86 °F 86 °F 93 °F (1999)
Min Temperature 72 °F 76 °F 72 °F (2012)
Cooling Degree Days 14    
Growing Degree Days 29 (Base 50)    
Moisture  
Dew Point 77 °F    
Average Humidity 87    
Maximum Humidity 100    
Minimum Humidity 70    
Precipitation  
Precipitation 0.28 in 0.13 in - ()
Sea Level Pressure  
Sea Level Pressure 29.88 in    
Wind  
Wind Speed 8 mph ()    
Max Wind Speed 12 mph    
Max Gust Speed -    
Visibility 7.8 miles    
Events Rain , Thunderstorm    
Averages and records for this station are not official NWS values.
T = Trace of Precipitation, MM = Missing Value Source: Averaged Metar Reports

Daily Weather History Graph

Daily Weather History Graph

Search for Another Location

Airport:

Trip Planner

Search our weather history database for the weather conditions in past years. The results will help you decide how hot, cold, wet, or windy it might be!

Date:

Astronomy

Oct. 30, 2012 Rise Set
Actual Time 6:28 AM AST 6:10 PM AST
Civil Twilight 6:06 AM AST 6:32 PM AST
Nautical Twilight 5:41 AM AST 6:57 PM AST
Astronomical Twilight 5:16 AM AST 7:22 PM AST
Moon 6:51 PM AST (10/30) 7:00 AM AST (10/30)
Length of Visible Light 12h 25m
Length of Day
11h 42m
Full, 99% of the Moon is Illuminated
Oct 30
Full
Nov 6
Last Quarter
Nov 13
New
Nov 20
First Quarter
Nov 28
Full

Hourly Weather History & Observations

Time (AST) Temp. Heat Index Dew Point Humidity Pressure Visibility Wind Dir Wind Speed Gust Speed Precip Events Conditions
12:00 AM 82.4 °F 92.4 °F 78.8 °F 89% 29.86 in 6.2 mi East 11.5 mph - N/A   Scattered Clouds
1:00 AM 80.6 °F 88.1 °F 78.8 °F 94% 29.86 in 6.2 mi East 11.5 mph - N/A   Scattered Clouds
2:00 AM 81 °F - 78 °F 88% 29.85 in 16 mi ESE 10.4 mph - -   Partly Cloudy
2:00 AM 80.6 °F 88.1 °F 78.8 °F 94% 29.83 in 6.2 mi ESE 10.4 mph - N/A   Scattered Clouds
3:00 AM 80.6 °F 87.1 °F 77.0 °F 89% 29.83 in 4.3 mi East 11.5 mph - N/A Rain , Thunderstorm Light Thunderstorms and Rain
4:00 AM 77.0 °F - 73.4 °F 89% 29.83 in 6.2 mi ESE 4.6 mph - N/A Rain Rain Showers
5:00 AM 76 °F - 74 °F 92% 29.84 in 12 mi 1.2 mph - - Thunderstorm Thunderstorm
5:00 AM 75.2 °F - 75.2 °F 100% 29.86 in 6.2 mi Variable 1.2 mph - N/A Thunderstorm Thunderstorm
6:00 AM 75.2 °F - 75.2 °F 100% 29.86 in 6.2 mi Variable 1.2 mph - N/A Thunderstorm Thunderstorm
7:00 AM 75.2 °F - 75.2 °F 100% 29.89 in 6.2 mi Calm Calm - N/A   Scattered Clouds
8:00 AM 78 °F - 77 °F 94% 29.90 in 16 mi SE 5.8 mph - -   Partly Cloudy
8:00 AM 78.8 °F - 77.0 °F 94% 29.89 in 6.2 mi SE 5.8 mph - N/A   Partly Cloudy
9:00 AM 82.4 °F 90.9 °F 77.0 °F 84% 29.92 in 6.2 mi SE 8.1 mph - N/A   Scattered Clouds
10:00 AM 86.0 °F 99.3 °F 78.8 °F 79% 29.92 in 6.2 mi East 8.1 mph - N/A   Scattered Clouds
11:00 AM 85 °F - 80 °F 81% 29.93 in 16 mi ESE 8.1 mph - -   Mostly Cloudy
11:00 AM 86.0 °F 101.9 °F 80.6 °F 84% 29.92 in 6.2 mi ESE 8.1 mph - N/A   Mostly Cloudy
12:00 PM 84.2 °F 96.1 °F 78.8 °F 84% 29.92 in 6.2 mi ESE 10.4 mph - N/A   Scattered Clouds
1:00 PM 84.2 °F 96.1 °F 78.8 °F 84% 29.89 in 6.2 mi East 11.5 mph - N/A   Scattered Clouds
2:00 PM 80 °F - 76 °F 85% 29.88 in 19 mi ESE 10.4 mph - -   Scattered Clouds
2:00 PM 80.6 °F 87.1 °F 77.0 °F 89% 29.86 in 6.2 mi ESE 10.4 mph - N/A   Partly Cloudy
3:00 PM 80.6 °F 86.2 °F 75.2 °F 84% 29.83 in 6.2 mi ESE 6.9 mph - N/A   Partly Cloudy
4:00 PM 84.2 °F 90.9 °F 73.4 °F 70% 29.83 in 6.2 mi East 5.8 mph - N/A   Partly Cloudy
5:00 PM 81 °F - 74 °F 73% 29.84 in 25 mi ESE 6.9 mph - -   Partly Cloudy
5:00 PM 80.6 °F 85.4 °F 73.4 °F 79% 29.83 in 6.2 mi East 8.1 mph - N/A   Scattered Clouds
6:00 PM 80.6 °F 85.4 °F 73.4 °F 79% 29.86 in 6.2 mi East 8.1 mph - N/A   Partly Cloudy
7:00 PM 80.6 °F 87.1 °F 77.0 °F 89% 29.86 in 6.2 mi East 11.5 mph - N/A   Partly Cloudy
8:00 PM 81 °F - 77 °F 84% 29.88 in 25 mi East 10.4 mph - -   Scattered Clouds
8:00 PM 80.6 °F 87.1 °F 77.0 °F 89% 29.86 in 6.2 mi East 10.4 mph - N/A   Partly Cloudy
9:00 PM 80.6 °F 87.1 °F 77.0 °F 89% 29.89 in 6.2 mi East 11.5 mph - N/A   Partly Cloudy
10:00 PM 80.6 °F 86.2 °F 75.2 °F 84% 29.92 in 6.2 mi East 10.4 mph - N/A   Scattered Clouds
11:00 PM 80 °F - 76 °F 82% 29.94 in 25 mi East 10.4 mph - -   Partly Cloudy
11:00 PM 80.6 °F 86.2 °F 75.2 °F 84% 29.92 in 6.2 mi East 10.4 mph - N/A   Scattered Clouds